RYR7992 LIRP-LIEA

Flight info

Callsign RYR7992
Flight time 0h 45m
Altitude 31000
Route DOCME M729 ELB DCT ROMPO L5 MINKA
Aircraft B738/M-SDE3FGILRWY/SB1

Departure

Time 2026-05-09 20:32
Airport Pisa International Airport (LIRP)

Arrival

Time 2026-05-09 21:17
Airport Alghero-Fertilia Airport (LIEA)
Time Latitude Longitude Altitude Speed Heading
2026-05-09 19:57 43.69762 10.39974 14 ft 0 kts 10°
2026-05-09 20:23 43.69756 10.39973 14 ft 3 kts
2026-05-09 20:23 43.69733 10.39968 14 ft 3 kts 11°
2026-05-09 20:23 43.69711 10.39958 14 ft 3 kts 34°
2026-05-09 20:23 43.69697 10.39937 17 ft 3 kts 76°
2026-05-09 20:24 43.69695 10.39919 14 ft 0 kts 99°
2026-05-09 20:26 43.69695 10.39924 14 ft 2 kts 99°
2026-05-09 20:26 43.69687 10.39994 14 ft 11 kts 98°
2026-05-09 20:27 43.69633 10.40057 14 ft 11 kts 169°
2026-05-09 20:27 43.69550 10.40074 15 ft 13 kts 173°
2026-05-09 20:27 43.69462 10.40090 17 ft 12 kts 172°
2026-05-09 20:27 43.69379 10.40118 22 ft 12 kts 142°
2026-05-09 20:28 43.69332 10.40200 18 ft 7 kts 127°
2026-05-09 20:28 43.69328 10.40207 18 ft 0 kts 127°
2026-05-09 20:30 43.69328 10.40208 18 ft 1 kts 127°
2026-05-09 20:30 43.69305 10.40250 19 ft 9 kts 127°
2026-05-09 20:30 43.69266 10.40320 19 ft 8 kts 134°
2026-05-09 20:31 43.69216 10.40293 19 ft 13 kts 216°
2026-05-09 20:31 43.68961 10.40029 19 ft 80 kts 217°
2026-05-09 20:31 43.68353 10.39400 18 ft 138 kts 217°
2026-05-09 20:31 43.67485 10.38493 263 ft 164 kts 217°
2026-05-09 20:32 43.66578 10.37556 1030 ft 161 kts 216°
2026-05-09 20:32 43.65649 10.36596 1524 ft 176 kts 215°
2026-05-09 20:32 43.64579 10.35501 1776 ft 204 kts 215°
2026-05-09 20:32 43.63404 10.34296 2192 ft 214 kts 215°
2026-05-09 20:33 43.62198 10.33088 2744 ft 219 kts 208°
2026-05-09 20:33 43.60752 10.32524 3408 ft 217 kts 183°
2026-05-09 20:33 43.59164 10.32572 3642 ft 240 kts 172°
2026-05-09 20:33 43.57438 10.32845 4069 ft 255 kts 171°
2026-05-09 20:34 43.55668 10.32778 4774 ft 261 kts 193°
2026-05-09 20:34 43.53979 10.31894 5645 ft 261 kts 199°
2026-05-09 20:34 43.52289 10.30911 6378 ft 265 kts 199°
2026-05-09 20:34 43.50588 10.29910 7107 ft 267 kts 200°
2026-05-09 20:35 43.48868 10.28899 7856 ft 270 kts 201°
2026-05-09 20:35 43.47124 10.27878 8607 ft 273 kts 201°
2026-05-09 20:35 43.45360 10.26848 9400 ft 276 kts 202°
2026-05-09 20:35 43.43602 10.25826 10161 ft 279 kts 202°
2026-05-09 20:36 43.41749 10.24750 10490 ft 300 kts 202°
2026-05-09 20:36 43.39749 10.23591 10673 ft 323 kts 202°
2026-05-09 20:36 43.37601 10.22348 10905 ft 343 kts 202°
2026-05-09 20:36 43.35363 10.21056 11456 ft 351 kts 202°
2026-05-09 20:37 43.33134 10.19770 12179 ft 353 kts 202°
2026-05-09 20:37 43.30847 10.18452 12912 ft 356 kts 202°
2026-05-09 20:37 43.28544 10.17126 13647 ft 360 kts 202°
2026-05-09 20:37 43.26220 10.15789 14317 ft 364 kts 202°
2026-05-09 20:38 43.23866 10.14435 14990 ft 368 kts 202°
2026-05-09 20:38 43.21489 10.13070 15698 ft 372 kts 202°
2026-05-09 20:38 43.19118 10.11710 16378 ft 375 kts 202°
2026-05-09 20:38 43.16682 10.10372 17053 ft 379 kts 198°
2026-05-09 20:39 43.14047 10.09921 17758 ft 386 kts 179°
2026-05-09 20:39 43.11393 10.10614 18424 ft 394 kts 162°
2026-05-09 20:39 43.08899 10.12276 18988 ft 400 kts 154°
2026-05-09 20:39 43.06457 10.14151 19548 ft 404 kts 153°
2026-05-09 20:40 43.04000 10.16079 20104 ft 408 kts 153°
2026-05-09 20:40 43.01550 10.17995 20655 ft 412 kts 153°
2026-05-09 20:40 42.99041 10.19937 21208 ft 415 kts 154°
2026-05-09 20:40 42.96510 10.21875 21681 ft 420 kts 155°
2026-05-09 20:41 42.93942 10.23828 22165 ft 424 kts 155°
2026-05-09 20:41 42.91356 10.25786 22717 ft 426 kts 155°
2026-05-09 20:41 42.88753 10.27753 23261 ft 428 kts 155°
2026-05-09 20:41 42.86137 10.29728 23733 ft 431 kts 155°
2026-05-09 20:42 42.83526 10.31698 24142 ft 434 kts 155°
2026-05-09 20:42 42.80867 10.33703 24596 ft 436 kts 155°
2026-05-09 20:42 42.78207 10.35706 25037 ft 438 kts 155°
2026-05-09 20:42 42.75486 10.37568 25440 ft 436 kts 164°
2026-05-09 20:43 42.72594 10.38417 25926 ft 427 kts 180°
2026-05-09 20:43 42.69634 10.38280 26393 ft 422 kts 192°
2026-05-09 20:43 42.66794 10.37286 26774 ft 422 kts 199°
2026-05-09 20:43 42.63966 10.36134 27120 ft 425 kts 199°
2026-05-09 20:44 42.61117 10.34968 27467 ft 428 kts 199°
2026-05-09 20:44 42.58296 10.33824 27889 ft 428 kts 199°
2026-05-09 20:44 42.55443 10.32683 28483 ft 425 kts 198°
2026-05-09 20:44 42.52611 10.31562 29099 ft 422 kts 198°
2026-05-09 20:45 42.49797 10.30457 29644 ft 420 kts 198°
2026-05-09 20:45 42.46981 10.29356 30116 ft 420 kts 198°
2026-05-09 20:45 42.44173 10.28261 30555 ft 418 kts 198°
2026-05-09 20:45 42.41417 10.27189 30998 ft 416 kts 198°
2026-05-09 20:46 42.35800 10.25005 31016 ft 419 kts 198°
2026-05-09 20:46 42.30242 10.22849 31022 ft 412 kts 198°
2026-05-09 20:47 42.24749 10.20721 31029 ft 414 kts 198°
2026-05-09 20:47 42.19191 10.18571 31035 ft 415 kts 198°
2026-05-09 20:48 42.13654 10.16434 31027 ft 415 kts 198°
2026-05-09 20:48 42.08099 10.14295 31024 ft 414 kts 198°
2026-05-09 20:49 42.02554 10.12162 31026 ft 413 kts 198°
2026-05-09 20:49 41.97064 10.10055 31027 ft 412 kts 198°
2026-05-09 20:50 41.91559 10.07946 31019 ft 410 kts 198°
2026-05-09 20:50 41.86116 10.05864 31022 ft 408 kts 198°
2026-05-09 20:51 41.80653 10.03778 31024 ft 407 kts 198°
2026-05-09 20:51 41.75209 10.01703 31006 ft 406 kts 198°
2026-05-09 20:52 41.69792 9.99641 31021 ft 406 kts 198°
2026-05-09 20:52 41.64339 9.97570 30747 ft 409 kts 198°
2026-05-09 20:53 41.61617 9.96538 30395 ft 402 kts 198°
2026-05-09 20:53 41.58935 9.95522 29919 ft 398 kts 198°
2026-05-09 20:53 41.56281 9.94518 29381 ft 394 kts 198°
2026-05-09 20:53 41.53656 9.93525 28908 ft 389 kts 197°
2026-05-09 20:54 41.51067 9.92547 28418 ft 385 kts 197°
2026-05-09 20:54 41.48500 9.91577 27942 ft 381 kts 197°
2026-05-09 20:54 41.45992 9.90631 27473 ft 378 kts 197°
2026-05-09 20:54 41.43469 9.89679 27011 ft 375 kts 197°
2026-05-09 20:55 41.40966 9.88735 26552 ft 372 kts 197°
2026-05-09 20:55 41.38485 9.87801 26087 ft 369 kts 197°
2026-05-09 20:55 41.36015 9.86872 25634 ft 367 kts 198°
2026-05-09 20:55 41.33555 9.85947 25175 ft 365 kts 197°
2026-05-09 20:56 41.31144 9.85041 24740 ft 363 kts 197°
2026-05-09 20:56 41.26280 9.83216 23833 ft 361 kts 198°
2026-05-09 20:56 41.23868 9.82312 23366 ft 358 kts 198°
2026-05-09 20:57 41.21499 9.81424 22865 ft 355 kts 198°
2026-05-09 20:57 41.19122 9.80534 22405 ft 351 kts 198°
2026-05-09 20:57 41.16778 9.79658 21950 ft 348 kts 198°
2026-05-09 20:57 41.14458 9.78791 21508 ft 345 kts 198°
2026-05-09 20:58 41.12223 9.77783 21065 ft 340 kts 209°
2026-05-09 20:58 41.10341 9.75934 20689 ft 335 kts 224°
2026-05-09 20:58 41.08873 9.73537 20186 ft 336 kts 238°
2026-05-09 20:58 41.07866 9.70742 19776 ft 335 kts 245°
2026-05-09 20:59 41.06998 9.67871 19349 ft 334 kts 246°
2026-05-09 20:59 41.06173 9.65036 18939 ft 332 kts 246°
2026-05-09 20:59 41.05341 9.62178 18521 ft 330 kts 246°
2026-05-09 21:00 41.03672 9.56542 17642 ft 327 kts 246°
2026-05-09 21:00 41.02835 9.53751 17226 ft 324 kts 246°
2026-05-09 21:00 41.02001 9.50989 16823 ft 321 kts 246°
2026-05-09 21:00 41.01171 9.48249 16419 ft 319 kts 246°
2026-05-09 21:01 41.00344 9.45524 16038 ft 318 kts 246°
2026-05-09 21:01 40.99528 9.42841 15631 ft 317 kts 245°
2026-05-09 21:01 40.98706 9.40141 15243 ft 315 kts 245°
2026-05-09 21:02 40.97071 9.34775 14460 ft 313 kts 245°
2026-05-09 21:02 40.96257 9.32112 14074 ft 311 kts 246°
2026-05-09 21:02 40.95443 9.29453 13674 ft 311 kts 246°
2026-05-09 21:02 40.94633 9.26808 13243 ft 310 kts 246°
2026-05-09 21:03 40.93821 9.24159 12715 ft 312 kts 246°
2026-05-09 21:03 40.93009 9.21511 12305 ft 310 kts 246°
2026-05-09 21:03 40.92209 9.18903 11908 ft 309 kts 246°
2026-05-09 21:03 40.91401 9.16271 11516 ft 307 kts 246°
2026-05-09 21:04 40.90597 9.13654 11127 ft 306 kts 246°
2026-05-09 21:04 40.89795 9.11047 10750 ft 305 kts 246°
2026-05-09 21:04 40.89003 9.08471 10543 ft 298 kts 245°
2026-05-09 21:04 40.88236 9.05975 10398 ft 289 kts 245°
2026-05-09 21:05 40.87488 9.03548 10265 ft 281 kts 245°
2026-05-09 21:05 40.86759 9.01186 10137 ft 274 kts 245°
2026-05-09 21:05 40.86056 8.98913 10016 ft 267 kts 245°
2026-05-09 21:05 40.85362 8.96668 9808 ft 262 kts 244°
2026-05-09 21:06 40.84673 8.94444 9527 ft 261 kts 244°
2026-05-09 21:06 40.83988 8.92232 9247 ft 259 kts 244°
2026-05-09 21:06 40.83311 8.90048 9045 ft 254 kts 244°
2026-05-09 21:06 40.82642 8.87890 8790 ft 253 kts 244°
2026-05-09 21:07 40.81975 8.85747 8538 ft 251 kts 244°
2026-05-09 21:07 40.81302 8.83614 8241 ft 252 kts 243°
2026-05-09 21:07 40.80633 8.81510 7956 ft 251 kts 243°
2026-05-09 21:07 40.79957 8.79386 7681 ft 251 kts 243°
2026-05-09 21:08 40.79281 8.77261 7386 ft 250 kts 243°
2026-05-09 21:08 40.78607 8.75144 7135 ft 250 kts 242°
2026-05-09 21:08 40.78158 8.73737 6950 ft 250 kts 243°
2026-05-09 21:08 40.77791 8.71474 6693 ft 260 kts 269°
2026-05-09 21:09 40.78033 8.69096 6424 ft 262 kts 275°
2026-05-09 21:09 40.78428 8.65943 6048 ft 263 kts 275°
2026-05-09 21:09 40.78628 8.64334 5865 ft 263 kts 275°
2026-05-09 21:09 40.78922 8.61946 5563 ft 262 kts 274°
2026-05-09 21:10 40.79206 8.59603 5309 ft 261 kts 274°
2026-05-09 21:10 40.79490 8.57239 5044 ft 260 kts 273°
2026-05-09 21:10 40.79771 8.54885 4794 ft 258 kts 273°
2026-05-09 21:10 40.80195 8.52568 4544 ft 262 kts 288°
2026-05-09 21:11 40.80984 8.50430 4428 ft 256 kts 290°
2026-05-09 21:12 40.82844 8.42306 4003 ft 208 kts 229°
2026-05-09 21:12 40.81818 8.41037 3824 ft 204 kts 209°
2026-05-09 21:12 40.80624 8.39960 3552 ft 210 kts 205°
2026-05-09 21:12 40.79379 8.38949 3282 ft 209 kts 202°
2026-05-09 21:13 40.78111 8.38074 3015 ft 203 kts 198°
2026-05-09 21:13 40.76860 8.37304 2743 ft 197 kts 198°
2026-05-09 21:13 40.75631 8.36564 2486 ft 191 kts 197°
2026-05-09 21:13 40.74443 8.35850 2220 ft 183 kts 198°
2026-05-09 21:14 40.73308 8.35166 1984 ft 176 kts 199°
2026-05-09 21:14 40.72211 8.34506 1746 ft 171 kts 199°
2026-05-09 21:14 40.71150 8.33861 1548 ft 165 kts 196°
2026-05-09 21:14 40.70139 8.33255 1333 ft 155 kts 195°
2026-05-09 21:15 40.69190 8.32678 1154 ft 145 kts 197°
2026-05-09 21:15 40.68296 8.32120 966 ft 143 kts 198°
2026-05-09 21:15 40.67379 8.31567 726 ft 145 kts 199°
2026-05-09 21:15 40.66408 8.31026 543 ft 153 kts 202°
2026-05-09 21:16 40.65414 8.30413 335 ft 162 kts 205°
2026-05-09 21:16 40.64394 8.29791 134 ft 161 kts 205°
2026-05-09 21:16 40.63475 8.29236 95 ft 117 kts 204°
2026-05-09 21:16 40.62929 8.28906 93 ft 55 kts 204°
2026-05-09 21:17 40.62760 8.28835 86 ft 20 kts 185°
2026-05-09 21:17 40.62653 8.28839 81 ft 10 kts 175°
2026-05-09 21:17 40.62596 8.28890 80 ft 11 kts 105°
2026-05-09 21:17 40.62635 8.28977 83 ft 14 kts 30°
2026-05-09 21:18 40.62727 8.29033 88 ft 14 kts 24°
2026-05-09 21:18 40.62816 8.29087 88 ft 14 kts 33°
2026-05-09 21:18 40.62858 8.29198 89 ft 14 kts 71°
2026-05-09 21:18 40.62916 8.29286 90 ft 13 kts 25°
2026-05-09 21:19 40.63098 8.29415 91 ft 4 kts 101°
2026-05-09 21:19 40.63086 8.29455 91 ft 3 kts 114°
2026-05-09 21:20 40.63082 8.29467 89 ft 0 kts 114°